Greenville, ME

11:08 AM EST on January 17, 2017 (GMT -0500)
Greenville

Weather History for KGNR - March, 2013

Change the Weather History Date:

Thursday, March 21, 2013

  Actual Average (KMLT) Record (KMLT)
Temperature  
Mean Temperature 24 °F -  
Max Temperature 33 °F 40 °F 79 °F (2012)
Min Temperature 15 °F 18 °F -12 °F (1916)
Degree Days  
Heating Degree Days 41    
Moisture  
Dew Point 14 °F    
Average Humidity 66    
Maximum Humidity 92    
Minimum Humidity 38    
Precipitation  
Precipitation 0.00 in - - ()
Sea Level Pressure  
Sea Level Pressure 29.63 in    
Wind  
Wind Speed 2 mph (NNE)    
Max Wind Speed 9 mph    
Max Gust Speed -    
Averages and records for this station are not official NWS values.
T = Trace of Precipitation, MM = Missing Value Source: NWS Daily Summary

Daily Weather History Graph

Daily Weather History Graph

Search for Another Location

Airport or City:

Trip Planner

Search our weather history database for the weather conditions in past years. The results will help you decide how hot, cold, wet, or windy it might be!

Date:

Astronomy

Mar. 21, 2013 Rise Set
Actual Time 6:39 AM EDT 6:52 PM EDT
Civil Twilight 6:09 AM EDT 7:22 PM EDT
Nautical Twilight 5:34 AM EDT 7:56 PM EDT
Astronomical Twilight 4:59 AM EDT 8:32 PM EDT
Moon 1:05 PM EDT (3/21) 3:13 AM EDT (3/21)
Length of Visible Light 13h 12m
Length of Day
12h 13m
Waxing Gibbous, 68% of the Moon is Illuminated
Mar 21
Waxing Gibbous
Mar 27
Full
Apr 3
Last Quarter
Apr 10
New
Apr 18
First Quarter

Hourly Weather History & Observations

Time (EDT) Temp. Windchill Dew Point Humidity Pressure Visibility Wind Dir Wind Speed Gust Speed Precip Events Conditions
12:56 AM 15.1 °F - 12.0 °F 88% 29.59 in - Calm Calm - N/A   Unknown
1:56 AM 16.0 °F - 14.0 °F 92% 29.59 in - Calm Calm - N/A   Unknown
2:56 AM 19.0 °F - 15.1 °F 85% 29.60 in - Calm Calm - N/A   Unknown
3:56 AM 18.0 °F - 15.1 °F 88% 29.60 in - Calm Calm - N/A   Unknown
4:56 AM 18.0 °F - 15.1 °F 88% 29.61 in - Calm Calm - N/A   Unknown
5:56 AM 19.0 °F - 15.1 °F 85% 29.63 in - Calm Calm - N/A   Unknown
6:56 AM 19.0 °F - 15.1 °F 85% 29.64 in - Calm Calm - N/A   Unknown
7:56 AM 21.0 °F 16.2 °F 17.1 °F 85% 29.66 in - Variable 3.5 mph - N/A   Unknown
8:56 AM 24.1 °F 18.2 °F 17.1 °F 75% 29.66 in - Variable 4.6 mph - N/A   Unknown
9:56 AM 26.1 °F 19.4 °F 14.0 °F 60% 29.67 in - Variable 5.8 mph - N/A   Unknown
10:56 AM 28.0 °F 24.2 °F 15.1 °F 58% 29.68 in - Variable 3.5 mph - N/A   Unknown
11:56 AM 28.9 °F 25.2 °F 12.0 °F 49% 29.67 in - Variable 3.5 mph - N/A   Unknown
12:56 PM 28.9 °F - 12.0 °F 49% 29.66 in - Calm Calm - N/A   Unknown
1:56 PM 30.9 °F 22.8 °F 10.0 °F 42% 29.64 in - SSW 9.2 mph - N/A   Unknown
2:56 PM 33.1 °F - 10.0 °F 38% 29.63 in - Calm Calm - N/A   Unknown
3:56 PM 32.0 °F - 10.0 °F 40% 29.61 in - Calm Calm - N/A   Unknown
4:56 PM 30.9 °F 25.2 °F 10.9 °F 43% 29.60 in - ENE 5.8 mph - N/A   Unknown
5:56 PM 30.0 °F - 10.9 °F 45% 29.62 in - Calm Calm - N/A   Unknown
6:56 PM 28.9 °F 23.9 °F 14.0 °F 54% 29.63 in - North 4.6 mph - N/A   Unknown
7:56 PM 28.0 °F 24.2 °F 14.0 °F 56% 29.62 in - North 3.5 mph - N/A   Unknown
8:56 PM 25.0 °F 19.3 °F 14.0 °F 63% 29.62 in - North 4.6 mph - N/A   Unknown
9:56 PM 21.9 °F 17.2 °F 15.1 °F 75% 29.62 in - Variable 3.5 mph - N/A   Unknown
10:56 PM 23.0 °F 17.0 °F 15.1 °F 72% 29.60 in - NE 4.6 mph - N/A   Unknown
11:56 PM 21.9 °F 13.4 °F 12.9 °F 68% 29.60 in - North 6.9 mph - N/A   Unknown